EA1AML-1 Vega de Espinareda ES current weather conditions

sailwx.info

Wind from 001

Air temperature 6.1° C
Dewpoint 6.0° C

Last reported at 2014-Oct-23 01:50 UTC.
Time now 2014-Oct-23 02:19 UTC

Location: N 42°43' W 006°39'.
View on Google Maps.

See reports from other nearby stations

  
Tides and Currents Weather Stations Pressure Air Temp Water Temp Dewpoint Dewpoint Depression Visibility Wind Speed Wind Dir Waves Ship Positions
date/time (UTC)wind fromknots sea level pressurealtimeterstation pressurevisibilityair tempwater tempwave heightnotes
2014-Oct-23 01:50 001 6.1
2014-Oct-23 01:43 001 6.1
2014-Oct-23 01:37 001 6.7
2014-Oct-23 01:31 6.7
2014-Oct-23 01:25 158 6.7
2014-Oct-23 01:20 196 6.7
2014-Oct-23 01:13 178 6.7
2014-Oct-23 01:10 141 6.7
2014-Oct-23 01:02 169 6.7
2014-Oct-23 00:55 181 6.7
2014-Oct-23 00:49 6.7
2014-Oct-23 00:43 6.7
2014-Oct-23 00:37 090 6.7
2014-Oct-23 00:32 090 7.2
2014-Oct-23 00:26 226 7.2
2014-Oct-23 00:13 208 7.2
2014-Oct-23 00:08 7.2
2014-Oct-23 00:02 7.2
2014-Oct-22 23:55 7.8
2014-Oct-22 23:49 192 7.8
2014-Oct-22 23:43 177 7.8
2014-Oct-22 23:37 178 1 gusting 2 7.8
2014-Oct-22 23:32 182 0 gusting 1 7.8
2014-Oct-22 23:26 181 7.8
2014-Oct-22 23:19 161 7.8
2014-Oct-22 23:13 096 7.8
2014-Oct-22 23:07 115 8.3
2014-Oct-22 23:02 178 8.3
2014-Oct-22 22:55 191 0 gusting 2 8.3
2014-Oct-22 22:49 209 8.3
2014-Oct-22 22:44 214 0 gusting 2 8.3
2014-Oct-22 22:38 191 8.9
2014-Oct-22 22:32 181 8.9
2014-Oct-22 22:26 181 8.9
2014-Oct-22 22:20 166 8.9
2014-Oct-22 22:13 118 9.4
2014-Oct-22 22:07 090 9.4
2014-Oct-22 22:01 189 9.4
2014-Oct-22 21:55 181 9.4
2014-Oct-22 21:50 183 9.4
2014-Oct-22 21:43 183 9.4
2014-Oct-22 21:37 184 1 gusting 3 9.4
2014-Oct-22 21:31 354 9.4
2014-Oct-22 21:20 220 10.0
2014-Oct-22 21:13 203 0 gusting 2 10.0
2014-Oct-22 21:07 217 0 gusting 2 10.6
2014-Oct-22 21:03 198 0 gusting 2 10.6
2014-Oct-22 20:56 161 10.6
2014-Oct-22 20:50 177 10.6
2014-Oct-22 20:43 195 10.6
2014-Oct-22 20:37 181 11.1
2014-Oct-22 20:31 181 1 gusting 3 11.1
2014-Oct-22 20:26 186 0 gusting 3 11.1
2014-Oct-22 20:19 179 11.1
2014-Oct-22 20:13 169 11.7
2014-Oct-22 20:08 184 0 gusting 2 11.7
2014-Oct-22 20:02 190 0 gusting 2 11.7
2014-Oct-22 19:43 169 0 gusting 1 12.2
2014-Oct-22 19:37 203 12.2
2014-Oct-22 19:31 189 12.8
2014-Oct-22 19:19 184 12.8
2014-Oct-22 19:14 186 2 gusting 5 13.3
2014-Oct-22 19:08 181 2 gusting 4 13.9
2014-Oct-22 19:02 189 2 gusting 5 13.9
2014-Oct-22 18:56 190 3 gusting 5 13.9
2014-Oct-22 18:49 191 0 gusting 2 14.4
2014-Oct-22 18:43 212 15.0
2014-Oct-22 18:37 207 15.0
2014-Oct-22 18:32 203 15.6
2014-Oct-22 18:26 200 1 gusting 5 15.6
2014-Oct-22 18:21 202 2 gusting 4 15.6
2014-Oct-22 18:14 189 2 gusting 4 15.6
2014-Oct-22 18:08 187 2 gusting 4 16.7
2014-Oct-22 18:01 193 2 gusting 5 16.7
2014-Oct-22 17:55 187 2 gusting 5 17.2
2014-Oct-22 17:49 181 17.8
2014-Oct-22 17:43 191 2 gusting 5 17.8
2014-Oct-22 17:38 202 1 gusting 4 18.3
2014-Oct-22 17:32 189 0 gusting 5 18.3
2014-Oct-22 17:20 187 3 gusting 5 19.4
2014-Oct-22 17:14 181 3 gusting 5 20.6
2014-Oct-22 17:08 181 2 gusting 4 21.1
2014-Oct-22 17:02 193 2 gusting 4 22.2
2014-Oct-22 16:56 210 22.8
2014-Oct-22 16:50 200 22.8
2014-Oct-22 16:43 189 1 gusting 2 23.3
2014-Oct-22 16:37 333 24.4
2014-Oct-22 16:33 339 0 gusting 2 24.4
2014-Oct-22 16:26 347 0 gusting 2 24.4
2014-Oct-22 16:19 354 0 gusting 2 24.4
2014-Oct-22 16:13 328 23.9
2014-Oct-22 16:03 350 1 gusting 4 24.4
2014-Oct-22 15:56 351 1 gusting 4 24.4
2014-Oct-22 15:51 346 0 gusting 4 24.4
2014-Oct-22 15:44 336 2 gusting 4 24.4
2014-Oct-22 15:38 334 1 gusting 4 24.4
2014-Oct-22 15:31 337 2 gusting 5 24.4
2014-Oct-22 15:19 333 2 gusting 6 24.4
2014-Oct-22 15:13 323 2 gusting 6 24.4
2014-Oct-22 15:09 322 4 gusting 7 24.4
2014-Oct-22 15:02 335 4 gusting 7 24.4
2014-Oct-22 14:56 333 2 gusting 6 24.4
2014-Oct-22 14:49 333 2 gusting 6 24.4
2014-Oct-22 14:44 335 2 gusting 6 24.4
2014-Oct-22 14:38 335 2 gusting 6 24.4
2014-Oct-22 14:32 340 2 gusting 6 24.4
2014-Oct-22 14:26 343 3 gusting 6 24.4
2014-Oct-22 14:19 338 2 gusting 7 24.4
2014-Oct-22 14:14 337 2 gusting 7 23.9
2014-Oct-22 14:07 326 2 gusting 5 23.9
2014-Oct-22 14:01 333 2 gusting 5 23.9
2014-Oct-22 13:56 333 2 gusting 5 23.9
2014-Oct-22 13:50 329 1 gusting 5 23.3
2014-Oct-22 13:43 337 1 gusting 6 23.3
2014-Oct-22 13:38 359 4 gusting 6 23.3
2014-Oct-22 13:32 002 2 gusting 5 22.8
2014-Oct-22 13:25 351 2 gusting 6 22.8
2014-Oct-22 13:20 352 2 gusting 7 22.8
2014-Oct-22 13:15 001 3 gusting 7 22.2
2014-Oct-22 13:07 359 2 gusting 5 22.2
2014-Oct-22 13:02 356 2 gusting 5 22.2
2014-Oct-22 12:56 353 0 gusting 5 22.2
2014-Oct-22 12:49 356 2 gusting 5 21.7
2014-Oct-22 12:44 355 2 gusting 5 21.7
2014-Oct-22 12:31 337 21.7
2014-Oct-22 12:26 350 0 gusting 2 21.1
2014-Oct-22 12:19 006 21.1
2014-Oct-22 12:15 095 21.1
2014-Oct-22 12:07 153 20.6
2014-Oct-22 12:02 166 20.6
2014-Oct-22 11:56 066 20.0
2014-Oct-22 11:49 027 20.0
2014-Oct-22 11:43 061 20.0
2014-Oct-22 11:37 071 19.4
2014-Oct-22 11:32 339 19.4
2014-Oct-22 11:26 160 18.9
2014-Oct-22 11:20 162 18.9
2014-Oct-22 11:13 145 1 gusting 2 18.9
2014-Oct-22 11:08 162 17.8
2014-Oct-22 11:02 270 17.2
2014-Oct-22 10:49 330 15.6
2014-Oct-22 10:43 351 0 gusting 2 15.6
2014-Oct-22 10:39 331 15.6
2014-Oct-22 10:32 016 15.0
2014-Oct-22 10:25 054 14.4
2014-Oct-22 10:13 073 0 gusting 1 13.9
2014-Oct-22 10:08 090 13.9
2014-Oct-22 10:01 123 13.3
2014-Oct-22 09:51 124 12.2
2014-Oct-22 09:44 314 11.7
2014-Oct-22 09:32 327 10.6
2014-Oct-22 09:25 350 9.4
2014-Oct-22 09:19 330 8.9
2014-Oct-22 09:14 328 0 gusting 1 8.9
2014-Oct-22 09:07 354 8.3
2014-Oct-22 09:01 005 8.3
2014-Oct-22 08:55 033 8.3
2014-Oct-22 08:49 135 8.3
2014-Oct-22 08:44 135 7.8
2014-Oct-22 08:31 135 7.8
2014-Oct-22 08:26 7.2
2014-Oct-22 08:25 7.2
2014-Oct-22 08:20 6.7
2014-Oct-22 08:14 6.7
2014-Oct-22 08:07 6.1
2014-Oct-22 08:03 135 6.1
2014-Oct-22 07:56 135 6.1
2014-Oct-22 07:43 025 5.6
2014-Oct-22 07:38 5.6
2014-Oct-22 07:31 135 5.6
2014-Oct-22 07:26 5.6
2014-Oct-22 07:20 5.6
2014-Oct-22 07:13 5.6
2014-Oct-22 07:08 5.6
2014-Oct-22 07:03 225 5.6
2014-Oct-22 06:56 212 6.1
2014-Oct-22 06:50 212 6.1
2014-Oct-22 06:43 225 6.1
2014-Oct-22 06:38 045 6.1
2014-Oct-22 06:31 135 6.1
2014-Oct-22 06:26 181 6.1
2014-Oct-22 06:25 181 6.1
2014-Oct-22 06:20 181 6.1
2014-Oct-22 06:13 6.1
2014-Oct-22 06:08 225 6.1
2014-Oct-22 06:02 284 6.1
2014-Oct-22 05:55 307 6.1
2014-Oct-22 05:49 320 6.1
2014-Oct-22 05:43 228 6.7
2014-Oct-22 05:38 195 6.7
2014-Oct-22 05:32 187 6.7
2014-Oct-22 05:26 216 6.7
2014-Oct-22 05:20 185 6.7
2014-Oct-22 05:13 011 7.2
2014-Oct-22 05:07 001 7.2
2014-Oct-22 05:01 001 7.2
2014-Oct-22 04:55 216 7.2
2014-Oct-22 04:43 156 7.2
2014-Oct-22 04:37 7.2
2014-Oct-22 04:32 7.2
2014-Oct-22 04:25 181 7.8
2014-Oct-22 04:13 201 7.2
2014-Oct-22 04:08 216 7.8
2014-Oct-22 04:01 206 7.8
2014-Oct-22 03:55 7.8
2014-Oct-22 03:51 181 7.8
2014-Oct-22 03:43 193 7.8
2014-Oct-22 03:37 212 7.8
2014-Oct-22 03:31 333 7.8
2014-Oct-22 03:25 244 7.8
2014-Oct-22 03:14 181 8.3
2014-Oct-22 03:09 181 8.3
2014-Oct-22 03:01 8.3
2014-Oct-22 02:57 015 8.3
2014-Oct-22 02:49 280 8.3
2014-Oct-22 02:43 225 8.3
2014-Oct-22 02:39 215 8.3
2014-Oct-22 02:33 192 8.3
2014-Oct-22 02:25 182 8.3
2014-Oct-22 02:20 239 8.9
2014-Oct-22 02:13 270 8.9
2014-Oct-22 02:08 270 8.9
2014-Oct-22 01:55 001 8.9
2014-Oct-22 01:51 247 8.9
2014-Oct-22 01:44 220 8.9
2014-Oct-22 01:38 158 8.9
2014-Oct-22 01:32 140 8.9
2014-Oct-22 01:26 345 8.9
2014-Oct-22 01:25 345 8.9
2014-Oct-22 01:20 008 8.9
2014-Oct-22 01:14 239 9.4
2014-Oct-22 01:07 205 9.4
2014-Oct-22 01:02 216 9.4
2014-Oct-22 00:55 197 9.4
2014-Oct-22 00:50 176 9.4
2014-Oct-22 00:37 189 10.0
2014-Oct-22 00:32 187 1 gusting 3 10.0
2014-Oct-22 00:27 295 10.0
2014-Oct-22 00:26 295 10.0
2014-Oct-22 00:20 287 10.0
2014-Oct-22 00:13 216 10.0
2014-Oct-22 00:07 225 10.6
2014-Oct-22 00:02 205 10.6
2014-Oct-21 23:56 282 10.6
2014-Oct-21 23:55 282 10.6
2014-Oct-21 23:49 301 10.6
2014-Oct-21 23:44 309 10.6
2014-Oct-21 23:32 001 10.6
2014-Oct-21 23:25 219 10.6
2014-Oct-21 23:21 194 11.1
2014-Oct-21 23:14 199 0 gusting 2 11.1
2014-Oct-21 23:07 222 0 gusting 1 11.1
2014-Oct-21 23:02 237 0 gusting 1 11.1
2014-Oct-21 22:56 216 11.1
2014-Oct-21 22:50 191 11.1
2014-Oct-21 22:44 185 0 gusting 2 11.1
2014-Oct-21 22:39 181 11.7
2014-Oct-21 22:31 181 11.7
2014-Oct-21 22:25 183 11.7
2014-Oct-21 22:20 191 11.7
2014-Oct-21 22:14 206 11.7
2014-Oct-21 22:07 203 0 gusting 1 12.2
2014-Oct-21 22:02 185 0 gusting 1 12.2
2014-Oct-21 21:56 165 12.2
2014-Oct-21 21:55 165 12.2
2014-Oct-21 21:50 191 12.2
2014-Oct-21 21:45 156 12.2
2014-Oct-21 21:37 176 12.2
2014-Oct-21 21:31 194 12.8
2014-Oct-21 21:25 151 12.8
2014-Oct-21 21:19 207 12.8
2014-Oct-21 21:15 192 13.3
2014-Oct-21 21:02 181 13.3
2014-Oct-21 20:55 13.3
2014-Oct-21 20:50 13.3
2014-Oct-21 20:44 13.3
2014-Oct-21 20:39 183 13.9
2014-Oct-21 20:32 232 13.9
2014-Oct-21 20:25 217 13.9
2014-Oct-21 20:20 001 0 gusting 2 13.9
2014-Oct-21 20:15 275 13.9
2014-Oct-21 20:07 280 1 gusting 2 14.4
2014-Oct-21 20:02 249 1 gusting 3 14.4
2014-Oct-21 19:56 199 14.4
2014-Oct-21 19:50 309 15.0
2014-Oct-21 19:44 316 15.0
2014-Oct-21 19:39 290 15.6
2014-Oct-21 19:31 215 15.6
2014-Oct-21 19:25 189 0 gusting 2 15.6
2014-Oct-21 19:19 146 1 gusting 2 16.1
2014-Oct-21 19:15 186 16.1
2014-Oct-21 19:09 225 16.1
2014-Oct-21 19:03 203 16.7
2014-Oct-21 18:55 216 16.7
2014-Oct-21 18:50 201 17.2
2014-Oct-21 18:44 217 0 gusting 2 17.2
2014-Oct-21 18:31 228 0 gusting 4 17.2
2014-Oct-21 18:25 258 17.8
2014-Oct-21 18:15 207 17.8
2014-Oct-21 18:08 186 2 gusting 5 17.8
2014-Oct-21 18:01 199 2 gusting 5 18.3
2014-Oct-21 17:56 197 0 gusting 4 18.9
2014-Oct-21 17:55 197 0 gusting 4 18.9
2014-Oct-21 17:50 190 2 gusting 6 19.4
2014-Oct-21 17:44 189 1 gusting 6 20.0
2014-Oct-21 17:37 194 2 gusting 5 20.6
2014-Oct-21 17:25 214 2 gusting 4 22.2
2014-Oct-21 17:20 310 23.3
2014-Oct-21 17:14 298 23.3
2014-Oct-21 17:03 314 24.4
2014-Oct-21 16:56 106 24.4
2014-Oct-21 16:50 058 25.0
2014-Oct-21 16:44 040 25.0
2014-Oct-21 16:39 058 25.0
2014-Oct-21 16:31 007 25.0
2014-Oct-21 16:26 356 25.0
2014-Oct-21 16:20 004 2 gusting 4 25.0
2014-Oct-21 16:14 003 1 gusting 6 25.0
2014-Oct-21 16:07 005 5 gusting 6 25.6
2014-Oct-21 16:01 008 5 gusting 6 25.6
2014-Oct-21 15:56 350 2 gusting 5 25.6
2014-Oct-21 15:55 350 2 gusting 5 25.6
2014-Oct-21 15:50 351 1 gusting 4 25.6
2014-Oct-21 15:45 004 1 gusting 5 26.1
2014-Oct-21 15:37 356 0 gusting 5 26.1
2014-Oct-21 15:31 014 2 gusting 5 26.1
2014-Oct-21 15:26 020 1 gusting 6 26.1
2014-Oct-21 15:19 019 3 gusting 6 26.1
2014-Oct-21 15:14 021 2 gusting 5 26.1
2014-Oct-21 15:10 357 0 gusting 2 25.6
2014-Oct-21 15:01 357 0 gusting 4 25.6
2014-Oct-21 14:56 351 1 gusting 4 26.1
2014-Oct-21 14:31 335 26.1
2014-Oct-21 14:26 340 26.1
2014-Oct-21 14:19 343 1 gusting 2 26.1
2014-Oct-21 14:13 001 25.6
2014-Oct-21 14:08 355 25.0
2014-Oct-21 14:01 331 25.0
2014-Oct-21 13:56 313 1 gusting 3 25.0
2014-Oct-21 13:38 356 24.4
2014-Oct-21 13:31 353 4 gusting 6 24.4
2014-Oct-21 13:26 356 0 gusting 6 23.9
2014-Oct-21 13:20 347 3 gusting 6 23.9
2014-Oct-21 13:14 349 0 gusting 6 23.9
2014-Oct-21 13:07 338 2 gusting 6 23.3
2014-Oct-21 13:01 350 1 gusting 5 23.3
2014-Oct-21 12:55 002 3 gusting 5 23.3
2014-Oct-21 12:49 010 23.3
2014-Oct-21 12:44 004 2 gusting 5 22.8
2014-Oct-21 12:37 357 22.8
2014-Oct-21 12:31 001 1 gusting 2 22.8
2014-Oct-21 12:25 018 0 gusting 1 22.8
2014-Oct-21 12:20 191 22.2
2014-Oct-21 12:13 004 21.7
2014-Oct-21 12:09 004 21.1
2014-Oct-21 11:56 343 21.1
2014-Oct-21 11:55 343 21.1
2014-Oct-21 11:50 349 0 gusting 2 20.6
2014-Oct-21 11:43 006 20.6
2014-Oct-21 11:38 148 20.6
2014-Oct-21 11:33 018 20.0
2014-Oct-21 11:26 012 0 gusting 2 19.4
2014-Oct-21 11:21 320 19.4
2014-Oct-21 11:14 292 18.9
2014-Oct-21 11:08 314 0 gusting 2 18.3
2014-Oct-21 11:02 320 18.3
2014-Oct-21 10:56 315 17.8
2014-Oct-21 10:50 339 17.2
2014-Oct-21 10:44 357 16.7
2014-Oct-21 10:37 003 16.7
2014-Oct-21 10:32 156 16.7
2014-Oct-21 10:26 211 16.1
2014-Oct-21 10:25 211 16.1
2014-Oct-21 10:21 293 15.0
2014-Oct-21 10:14 309 14.4
2014-Oct-21 10:07 001 13.9
2014-Oct-21 10:02 001 13.9
2014-Oct-21 09:56 352 13.3
2014-Oct-21 09:50 334 12.8
2014-Oct-21 09:43 12.8
2014-Oct-21 09:37 12.2
2014-Oct-21 09:31 11.7
2014-Oct-21 09:25 001 11.7
2014-Oct-21 09:20 001 11.1
2014-Oct-21 09:13 10.6
2014-Oct-21 09:07 001 10.0
2014-Oct-21 09:01 001 10.0
2014-Oct-21 08:56 001 9.4
2014-Oct-21 08:49 9.4
2014-Oct-21 08:44 8.9
2014-Oct-21 08:31 001 8.3
2014-Oct-21 08:27 046 8.3
2014-Oct-21 08:19 122 8.3
2014-Oct-21 08:14 097 7.8
2014-Oct-21 08:01 042 7.8
2014-Oct-21 07:50 135 7.8
2014-Oct-21 07:44 135 7.8
2014-Oct-21 07:37 135 7.2
2014-Oct-21 07:31 7.2
2014-Oct-21 07:25 314 7.2
2014-Oct-21 07:20 272 7.2
2014-Oct-21 07:15 161 7.2
2014-Oct-21 07:08 145 7.2
2014-Oct-21 07:03 185 7.2
2014-Oct-21 06:55 314 7.2
2014-Oct-21 06:50 314 7.2
2014-Oct-21 06:44 323 7.2
2014-Oct-21 06:38 330 7.2
2014-Oct-21 06:31 181 7.2
2014-Oct-21 06:25 176 7.8
2014-Oct-21 06:20 195 7.8
2014-Oct-21 06:13 209 7.8
2014-Oct-21 06:08 308 7.8
2014-Oct-21 06:02 328 7.2
2014-Oct-21 05:56 341 7.8
2014-Oct-21 05:49 195 7.8
2014-Oct-21 05:37 169 7.8
2014-Oct-21 05:32 178 7.8
2014-Oct-21 05:26 181 7.8
2014-Oct-21 05:20 181 7.8
2014-Oct-21 05:14 7.8
2014-Oct-21 05:07 7.8
2014-Oct-21 05:02 188 7.8
2014-Oct-21 04:56 172 7.8
2014-Oct-21 04:55 172 7.8
2014-Oct-21 04:50 140 0 gusting 1 7.8
2014-Oct-21 04:45 7.8
2014-Oct-21 04:38 7.8
2014-Oct-21 04:32 8.3
2014-Oct-21 04:26 181 8.3
2014-Oct-21 04:19 162 8.3
2014-Oct-21 04:15 165 8.3
2014-Oct-21 04:08 8.3
2014-Oct-21 04:02 8.3
2014-Oct-21 03:56 8.3
2014-Oct-21 03:55 8.3
2014-Oct-21 03:49 8.3
2014-Oct-21 03:44 105 8.3
2014-Oct-21 03:37 111 8.3
2014-Oct-21 03:32 135 8.3
2014-Oct-21 03:25 135 8.3
2014-Oct-21 03:20 135 8.3
2014-Oct-21 03:15 135 8.3
2014-Oct-21 03:08 8.9
2014-Oct-21 03:02 8.9
2014-Oct-21 02:56 181 8.9
2014-Oct-21 02:55 181 8.9
2014-Oct-21 02:50 181 8.9
2014-Oct-21 02:45 181 8.9
2014-Oct-21 02:38 8.9
2014-Oct-21 02:32 181 8.9
2014-Oct-21 02:26 186 9.4
2014-Oct-21 02:25 186 9.4
2014-Oct-21 02:15 181 9.4
2014-Oct-21 02:08 181 9.4
2014-Oct-21 02:01 181 9.4